Regional Weather Roundup
Issued by NWS

Home | Current Version | Previous Version | Graphics & Text | Print | Product List | Glossary On
Versions: 1 2 3 4 5 6 7 8 9 10 11 12 13 14 15 16 17 18 19 20 21 22 23 24 25 26 27 28 29 30 31 32 33 34 35 36 37 38 39 40 41 42 43 44 45 46 47 48 49 50
000
ASUS43 KLMK 232010
RWRKY
KENTUCKY REGIONAL WEATHER ROUNDUP
NATIONAL WEATHER SERVICE LOUISVILLE KY
400 PM EDT SAT JUL 23 2016

NOTE "FAIR" INDICATES FEW OR NO CLOUDS BELOW 12,000 FEET
WITH NO SIGNIFICANT WEATHER AND/OR OBSTRUCTIONS TO VISIBILITY.

KYZ001>023-026-027-061>063-070>075-232100-
WESTERN AND SOUTH CENTRAL KENTUCKY

CITY           SKY/WX    TMP DP  RH WIND       PRES   REMARKS
PADUCAH        SUNNY     92  74  55 CALM      29.96F HX 101
HENDERSON      MOSUNNY   91  77  62 S3        29.97S HX 105
OWENSBORO      PTSUNNY   93  77  59 SW7       29.98F HX 106
HOPKINSVILLE   MOSUNNY   91  76  60 CALM      29.96F HX 103
BOWLING GREEN  MOSUNNY   93  77  59 VRB6      29.98F HX 107
GLASGOW        MOSUNNY   90  72  55 CALM      29.98F HX  97
$$

KYZ024-025-028>034-038-045-046-053-232100-
NORTH CENTRAL KENTUCKY

CITY           SKY/WX    TMP DP  RH WIND       PRES   REMARKS
LOUISVILLE/SDF PTSUNNY   93  71  48 W7        29.98F HX 100
LOUISVILLE/LOU PTSUNNY   92  71  50 S5        29.99S HX  98
FORT KNOX      SUNNY     91  73  54 VRB2      29.98F HX  99
$$

KYZ035>037-039>044-047>052-055>060-089>105-232100-
NORTHEAST KENTUCKY

CITY           SKY/WX    TMP DP  RH WIND       PRES   REMARKS
LEXINGTON      MOSUNNY   93  69  45 W8        30.02F HX  98
COVINGTON      MOSUNNY   89  72  56 CALM      30.00F HX  96
FRANKFORT      MOSUNNY   90  71  53 NW5       30.00F HX  96
$$

KYZ054-064>069-076>088-106>120-232100-
SOUTHEAST KENTUCKY

CITY           SKY/WX    TMP DP  RH WIND       PRES   REMARKS
JACKSON        MOSUNNY   90  71  53 CALM      30.03F HX  96
LONDON         SUNNY     92  67  43 CALM      30.02F HX  95
SOMERSET       MOSUNNY   88  68  51 CALM      30.02F HX  91
MIDDLESBORO    MOSUNNY   92  71  50 W3        30.01F HX  99
MONTICELLO     CLEAR    N/A N/A N/A N12       30.02F
$$





USA.gov is the U.S. government's official web portal to all federal, state and local government web resources and services.